Location: Trois-Rivi�res
(46.3500°N, 72.5500°W)
Time: 18:38:07
(UTC-04:00)

Daily predictions for brighter satellites

Satellite Brightness Start Highest point End
(mag) Time Altitude Azimuth Time Altitude Azimuth Time Altitude Azimuth
Cosmos 1833 Rocket 3.5 20:52:34 10° NNW 20:57:46 37° NE 21:02:57 10° ESE
Cosmos 614 Rocket 4.4 20:52:54 10° NNW 20:57:50 47° ENE 21:02:42 10° SE
Cosmos 2341 Rocket 4.2 20:52:30 10° SSE 20:58:34 54° E 21:04:38 10° NNE
Envisat 3.1 20:56:44 10° SSE 21:01:45 65° ENE 21:06:48 10° N
deb Chang Zheng 4 4.0 20:58:49 10° NNE 21:03:04 44° E 21:07:18 10° S
Cosmos 1844 Rocket 3.2 20:58:03 10° SW 21:03:41 66° WNW 21:09:19 10° NNE
Cosmos 1825 2.2 21:01:16 10° S 21:05:01 61° E 21:08:50 10° NNE
Cosmos 2278 Rocket 2.2 21:02:47 10° SSW 21:08:25 72° ESE 21:14:06 10° NNE
Terra 3.9 21:07:10 10° E 21:09:24 13° ENE 21:11:39 10° NNE
ERS-1 Rocket 3.2 21:05:50 10° S 21:10:51 74° WSW 21:15:56 10° NNW
Timation 2 Rocket 3.9 21:06:37 10° NNW 21:12:39 87° ENE 21:18:39 10° SSE
Cosmos 1420 Rocket 4.1 21:09:18 10° S 21:14:25 57° ESE 21:19:31 10° NNE
Cosmos 1140 Rocket 3.5 21:09:34 10° NNW 21:14:45 85° WSW 21:19:54 10° SSE
H-2A R/B 2.0 21:10:47 10° SSE 21:15:02 81° ENE 21:19:15 10° NNW
Cosmos 1844 4.1 21:09:29 10° SW 21:15:16 71° WNW 21:21:06 10° NNE
ISS -3.3 21:12:21 10° WSW 21:15:36 87° NNW 21:18:52 10° ENE
Okean 3 3.5 21:12:23 10° N 21:16:42 89° WSW 21:20:56 10° S
APEX 3.8 21:15:23 10° S 21:19:24 53° ESE 21:24:40 10° NE
Cosmos 1939 Rocket 3.1 21:16:24 10° S 21:20:18 71° WSW 21:24:17 10° NNW
Cosmos 2154 Rocket 4.1 21:14:12 10° S 21:20:25 85° W 21:26:40 10° N
Cosmos 1238 Rocket 2.8 21:17:51 10° NNW 21:21:12 71° W 21:25:10 10° S
COSMOS 2487 3.6 21:17:55 10° NNW 21:21:22 42° WSW 21:24:46 10° S
BREEZE-M TANK 4.1 21:02:05 10° W 21:23:09 84° S 21:27:30 10° E
Abrixas 3.8 21:22:05 10° SSW 21:24:26 20° SE 21:26:19 13° E
CZ-4B R/B 4.4 21:20:21 10° NE 21:24:34 28° E 21:28:22 11° SSE
Cosmos 2082 Rocket 2.3 21:20:07 10° NNW 21:25:50 70° ENE 21:30:58 13° SE
SPOT 5 3.1 21:24:05 10° SSE 21:29:25 82° ENE 21:34:48 10° NNW
Cosmos 1452 Rocket 4.4 21:30:37 10° SW 21:35:47 54° WNW 21:40:59 10° NNE
Cosmos 1812 4.0 21:34:38 10° NNE 21:37:57 26° ENE 21:39:59 17° ESE
Lacrosse 5 3.1 21:36:05 10° SSE 21:39:37 19° ESE 21:43:10 10° ENE
Cosmos 1184 Rocket 3.7 21:36:44 10° SSW 21:40:00 52° WNW 21:43:18 10° N
Intercosmos 25 2.8 21:38:38 10° S 21:41:58 71° E 21:45:10 10° NNE
H-2A R/B 3.1 21:40:11 15° ESE 21:43:51 32° ENE 21:48:29 10° N
Cosmos 2366 rocket 4.2 21:38:00 10° SSE 21:44:03 53° E 21:50:12 10° NNE
Cosmos 2297 3.7 21:41:25 10° SSW 21:47:07 76° ESE 21:52:52 10° NNE
MetOp-B 4.2 21:43:39 11° SSE 21:48:52 83° WSW 21:54:15 10° NNW
NOAA 11 4.3 21:46:39 16° SSE 21:51:03 66° ENE 21:56:31 10° N
Meteor 1-14 Rocket 4.2 21:45:37 10° S 21:51:14 73° E 21:56:48 10° NNE
Okean 2 Rocket 3.6 21:50:19 10° SSW 21:54:40 60° WNW 21:59:03 10° N
SL-8 R/B 4.0 21:51:53 10° W 21:56:43 68° N 22:01:31 10° E
BREEZE-M DEB (TANK) 2.4 21:55:13 10° W 21:57:11 44° N 22:00:20 10° ENE
SPOT 1/Viking Rocket 3.5 21:55:17 16° SSE 21:59:27 87° ENE 22:04:43 10° NNW
Cosmos 1242 Rocket 4.1 21:57:43 10° NNW 22:01:05 34° W 22:04:28 10° SSW
USA 229 DEB 3.9 21:54:34 10° NW 22:01:38 71° SW 22:07:00 19° SSE
USA 229 3.9 21:54:40 10° NW 22:01:44 72° SW 22:07:06 19° SSE
NOSS 8 (E) 4.5 22:00:39 10° SSW 22:04:03 58° SE 22:07:48 10° NE
ARGOS 3.2 22:09:05 19° SSE 22:13:03 83° WSW 22:18:27 10° NNW
YAOGAN 6 3.6 22:10:46 16° SSW 22:13:18 41° W 22:16:41 10° NNW
CARTOSAT-1 4.1 22:12:41 27° SE 22:14:35 45° ENE 22:18:43 10° N
Cosmos 2369 Rocket 3.6 22:14:07 19° ESE 22:14:36 19° E 22:18:24 10° ENE
Lacrosse 5 rocket 1.5 22:12:08 10° SSW 22:15:46 38° SE 22:19:17 10° ENE
Cosmos 2218 Rocket 4.1 22:09:26 10° S 22:15:52 82° W 22:22:18 10° N
BREEZE-M DEB (TANK) 4.0 22:13:41 10° W 22:16:57 64° N 22:26:58 10° E
CZ-4 R/B 3.7 22:12:29 10° NNE 22:17:08 64° ESE 22:20:06 22° S
Meteor 2-8 Rocket 4.5 22:12:00 10° N 22:18:12 86° W 22:22:43 19° S
SL-08 RB Rocket 3.7 22:15:38 24° S 22:18:28 84° WSW 22:23:10 10° NNW
NOSS 3-1 (A) 4.3 22:12:31 10° NW 22:19:50 61° NE 22:25:30 21° ESE
Cosmos 1536 Rocket 3.9 22:19:48 10° NNW 22:24:15 64° W 22:27:02 22° S
AVUM R/B 4.5 22:21:29 10° NW 22:24:45 37° WSW 22:26:05 26° SSW
Gbstr 26 Del rocket 3.1 22:20:25 10° WNW 22:25:38 74° SSW 22:27:30 34° SE
Cosmos 1727 Rocket 4.1 22:19:44 10° N 22:25:55 78° W 22:30:27 19° S
Landsat 7 3.8 22:28:19 29° SSE 22:30:45 90° W 22:35:32 10° NNW
Cosmos 1331 Rocket 3.9 22:27:10 17° S 22:31:10 73° ESE 22:36:19 10° NNE
NOSS 8 (H) 4.4 22:30:35 12° SW 22:33:47 84° SE 22:37:45 10° NE
IGS 5A 3.6 22:32:35 38° SE 22:33:58 61° ENE 22:38:05 10° N
DELTA 2 DEB (DPAF) 4.1 22:34:27 33° S 22:36:27 82° WSW 22:40:57 10° NNW
CZ-4C R/B 3.4 22:36:09 37° S 22:37:40 80° WSW 22:41:55 10° NNW
SAR-Lupe-2 4.1 22:37:36 39° E 22:38:08 43° ENE 22:41:33 10° N
Cosmos 1943 Rocket 4.2 22:40:11 12° E 22:40:11 12° E 22:41:30 10° ENE
ATLAS 2AS CENTAUR R/B 4.0 22:32:53 10° NW 22:40:34 42° NE 22:46:59 14° E
Cosmos 1110 Rocket 4.0 22:35:43 11° SSW 22:40:47 83° WNW 22:46:01 10° NNE
Cosmos 1833 Rocket 3.7 22:36:32 10° NW 22:41:44 39° WSW 22:45:06 20° SSW
Meteor 1-20 Rocket 4.2 22:39:25 18° SSW 22:43:41 80° W 22:49:13 10° N
Cosmos 1400 Rocket 3.5 22:44:16 37° ESE 22:44:31 37° E 22:48:21 10° NNE
Terra 1.7 22:44:33 37° SSE 22:46:27 89° WSW 22:51:14 10° NNW
NOSS 3-1 (C) 4.0 22:40:58 10° NW 22:48:28 86° SW 22:53:00 30° SE
Spot 2 4.5 22:45:11 10° NNE 22:49:14 40° E 22:49:28 40° ESE
Cosmos 1536 3.6 22:49:24 34° E 22:49:24 34° E 22:52:59 10° NNE
DMSP B5D2-2 4.0 22:45:44 10° NNE 22:50:58 70° ESE 22:53:13 35° S
Cosmos 1025 Rocket 3.4 22:46:46 10° N 22:51:05 51° ENE 22:52:00 43° ESE
ISS -1.6 22:49:20 10° WNW 22:52:19 33° N 22:55:20 10° ENE
USA 234 3.7 22:50:49 10° ENE 22:56:48 37° SE 22:58:06 34° SSE
Cosmos 1821 Rocket 4.1 22:57:22 35° SSE 22:59:56 61° E 23:06:02 10° NNE
Abrixas 4.4 22:57:06 10° WSW 22:58:22 22° WSW 22:58:22 22° WSW
Meteor 2-21 4.5 22:58:13 35° SSE 23:00:58 68° E 23:07:08 10° NNE
Cosmos 1809 Rocket 4.4 23:03:31 35° S 23:06:18 75° E 23:12:29 10° NNE
Cosmos 1300 Rocket 4.1 23:04:46 28° SW 23:06:54 55° WNW 23:11:18 10° N
Cosmos 1455 Rocket 4.3 23:07:10 26° E 23:07:10 26° E 23:10:33 10° NNE
Cosmos 1934 Rocket 4.0 23:05:08 39° SSE 23:07:10 58° E 23:13:06 10° NNE
Cosmos 1486 Rocket 4.5 23:02:10 10° NNW 23:07:22 54° WSW 23:09:19 35° SSW
Spot 4 3.9 23:06:34 44° S 23:08:05 75° WSW 23:12:57 10° NNW
Cosmos 1354 Rocket 3.9 23:03:36 10° NNW 23:08:54 87° ENE 23:10:29 47° SSE
Cosmos 2082 Rocket 4.2 23:05:22 10° NW 23:09:18 19° W 23:12:49 11° SW
Cosmos 2285 Rocket 4.1 23:12:34 39° SSE 23:14:48 60° ESE 23:21:06 10° NNE
Okean 1 Rocket 3.7 23:13:53 30° SW 23:15:48 52° WNW 23:20:11 10° N
Cosmos 2123 Rocket 4.0 23:09:33 10° N 23:15:48 67° ENE 23:17:58 42° SSE
Cosmos 1602 3.7 23:16:36 69° SW 23:17:00 79° W 23:20:56 10° N
ALOS 2 4.0 23:19:16 24° E 23:19:58 26° ENE 23:23:36 10° N
Cosmos 1356 3.6 23:20:42 67° WNW 23:20:42 67° WNW 23:24:14 10° N
Lacrosse 5 1.8 23:16:54 10° SW 23:22:00 88° NW 23:27:08 10° NE
Genesis I 3.6 23:21:07 35° WSW 23:22:38 65° NW 23:26:39 10° NNE
H-2A R/B 3.1 23:20:50 26° SW 23:23:10 39° W 23:28:06 10° NNW
Cosmos 1992 Rocket 4.5 23:23:59 40° ESE 23:24:05 40° ESE 23:28:56 10° NE
Meteor 2-4 Rocket 3.6 23:19:16 10° N 23:24:46 88° E 23:26:19 50° SSE
Cosmos 2263 4.3 23:27:22 48° SE 23:28:03 51° ESE 23:33:31 10° NE
Cosmos 1818 4.0 23:32:09 42° ESE 23:32:09 42° ESE 23:37:03 10° NE
Cosmos 1544 Rocket 3.4 23:36:48 74° E 23:36:51 74° E 23:41:11 10° NNE
Meteor 2-15 Rocket 4.4 23:32:06 10° N 23:38:16 89° WSW 23:40:05 49° S
SL-8 R/B 3.5 23:34:35 10° WNW 23:39:24 73° SSW 23:39:35 72° S
H-2A R/B 4.1 23:36:57 10° NE 23:40:06 25° E 23:40:06 25° E
ASTEX 1 4.4 23:37:42 10° N 23:42:23 42° WNW 23:44:26 28° SW
Cosmos 1633 3.1 23:44:52 54° WNW 23:44:52 54° WNW 23:48:24 10° N
Meteor 2-14 Rocket 4.4 23:42:32 42° SSW 23:44:47 79° W 23:50:58 10° N
deb Kosmos-1763 4.4 23:42:52 10° NNW 23:46:22 67° NW 23:46:22 67° NW
Iridium 4 Rocket 4.1 23:41:34 10° N 23:47:24 60° W 23:49:23 40° SSW
Cosmos 1833 4.3 23:42:51 10° NNW 23:48:29 68° ENE 23:49:49 51° ESE
BREEZE-M DEB (TANK) 4.4 23:31:12 10° W 23:50:34 71° N 23:55:15 10° E
Cosmos 1315 Rocket 3.0 23:51:14 65° WNW 23:51:14 65° WNW 23:55:02 10° N
Cosmos 375 4.4 23:49:45 10° NW 23:53:33 72° NNW 23:53:33 72° NNW
Lacrosse 5 rocket 2.6 23:51:27 10° W 23:55:00 36° NNW 23:58:28 10° NE
CZ-2C R/B 4.2 23:51:44 10° NE 23:55:38 21° E 23:55:38 21° E
